Regional Weather Roundup
Issued by NWS Newport/Morehead, NC

Current Version | Previous Version | Graphics & Text | Print | Product List | Glossary On
Versions: 1 2 3 4 5 6 7 8 9 10 11 12 13 14 15 16 17 18 19 20 21 22 23 24 25 26 27 28 29 30 31 32 33 34 35 36 37 38 39 40 41 42 43 44 45 46 47 48 49 50
000
ASUS42 KMHX 012112
RWRMHX
WEATHER ROUNDUP FOR EASTERN NORTH CAROLINA
NATIONAL WEATHER SERVICE NEWPORT/MOREHEAD CITY NC
500 PM EDT WED APR 01 2015

NOTE: "FAIR" INDICATES FEW OR NO CLOUDS BELOW 12,000 FEET
WITH NO SIGNIFICANT WEATHER AND/OR OBSTRUCTIONS TO VISIBILITY

NCZ015>017-031-032-045>047-102-103-012200-
NORTH COAST

CITY           SKY/WX    TMP DP  RH WIND       PRES   REMARKS
EDENTON        SUNNY     55  33  43 E9        30.16R
ELIZABETH CITY SUNNY     54  33  45 E10       30.17R
KITTY HAWK     CLEAR     46  33  60 NE5       30.17S
MANTEO         SUNNY     47  32  55 NE8       30.19R

$$

NCZ045>047-081-094-103-104-012200-
CENTRAL COAST

CITY           SKY/WX    TMP DP  RH WIND       PRES   REMARKS
FRISCO         SUNNY     48  30  49 NE15G25   30.17R
SWANQUARTER      N/A     57 N/A N/A NE7G14    30.12S

$$

NCZ095-097-098-100-101-012200-
SOUTHERN COAST

CITY           SKY/WX    TMP DP  RH WIND       PRES   REMARKS
BEAUFORT       SUNNY     57  37  47 NE13      30.15R
CEDAR ISLAND     N/A     52 N/A N/A NE10G17   30.18S
JACKSONVILLE   SUNNY     65  30  27 N10       30.12R
PINEY ISLAND   CLEAR    N/A N/A N/A E12       30.16R
WILMINGTON     SUNNY     60  41  49 E15       30.12R


$$

NCZ011>013-027>030-043-044-078>080-089-090>093-098-012200-
COASTAL PLAIN

CITY           SKY/WX    TMP DP  RH WIND       PRES   REMARKS
AHOSKIE        SUNNY     59  26  27 N5        30.15R
CLINTON        SUNNY     65  37  34 E6        30.13S
ELIZABETHTOWN  SUNNY     68  33  27 E7        30.10F
GOLDSBORO      SUNNY     63  34  33 VRB6      30.12R
GREENVILLE     SUNNY     61  28  29 NW3       30.16R
HAVELOCK       SUNNY     59  36  42 NE12      30.15R
KENANSVILLE    SUNNY     63  30  28 CALM      30.14R
KINSTON        SUNNY     63  28  27 NE5       30.14S
NEW BERN       SUNNY     63  30  28 NE10      30.14R
RICHLANDS      SUNNY     64  30  27 N7        30.13S
ROCKY MOUNT    SUNNY     63  29  27 SE3       30.14R
WASHINGTON     SUNNY     60  28  29 NE3       30.14S
WHITEVILLE     SUNNY     69  36  30 NE6       30.08S

$$

AMZ130-135-150-152-154-156-158-170-250-252-270-ANZ085-086-088-633-658-670-012200-
MARINE OBSERVATIONS

STATION/POSITION TIME  TEMP    WIND        PRES    WAVE   SWELL
                       AIR SEA DIR/SP/G            HT/PER HT/PER
                 (UTC) (F)     (DEG/KT/KT) (MB)    (FT/S) (FT/S)
CHESAPEAKE LIGHT 2000   42     100/  7/  7 1022.3
64 E VA BEACH    2050   45 53   10/ 12/ 14 1021.6    5/ 8   3/ 8
DUCK             2000   43 44   60/  8/ 10 1021.1
2 E DUCK         2011      43                N/A     4/ 7
10 NE DUCK       NOT AVBL
OREGON INLET     2000   44 49   20/  9/ 16 1021.9
HATTERAS CG      2000   47 56   30/ 17/ 23 1021.2
CAPE LOOKOUT     2100   51      50/ 15/ 16 1020.9
BEAUFORT LAB     2000   57 55   40/  9/ 15 1019.4
27 SE WRIGHTSVLE 2000   53 64   80/ 14/ 16 1021.6
5 SE WRIGHTSVLE  2000   56 56  110/ 14/ 16 1019.7
225 S CAPE HAT   2050   67 69   20/ 21/ 23 1016.5    6/ 8   5/ 8
41 SE CHARLESTON 2050   64 69   60/ 19/ 25 1017.5    5/ 5   2/11

$$



USA.gov is the U.S. government's official web portal to all federal, state and local government web resources and services.